This is the latest recevied weather packets stored in our database for station/object KB1QVF. If no packets are shown the sender has not sent any weather packets the latest 1 day(s).
| Time | Temp. | Humidity | Pressure | Rain* | Wind** | Luminosity | Snow |
|---|---|---|---|---|---|---|---|
| 1778079372 | 20° C | 65% | 1012.2 hPa | 0 mm | - | 717 W/m² | - |
| 1778077858 | 18.33° C | 68% | 1012.6 hPa | 0 mm | - | 459 W/m² | - |
| 1778077254 | 18.33° C | 69% | 1012.5 hPa | 0 mm | - | 321 W/m² | - |
| 1778076044 | 18.33° C | 69% | 1012.5 hPa | 0 mm | - | 326 W/m² | - |
| 1778073618 | 17.78° C | 71% | 1012.8 hPa | 0 mm | - | 326 W/m² | - |
| 1778072406 | 17.22° C | 74% | 1013.2 hPa | 0 mm | - | 404 W/m² | - |
| 1778071499 | 16.67° C | 77% | 1013.1 hPa | 0 mm | - | 181 W/m² | - |
| 1778071197 | 16.67° C | 77% | 1013.2 hPa | 0 mm | - | 219 W/m² | - |
| 1778070592 | 16.11° C | 79% | 1013 hPa | 0 mm | - | 163 W/m² | - |
| 1778069987 | 15.56° C | 80% | 1012.8 hPa | 0 mm | - | 315 W/m² | - |
| 1778069078 | 15.56° C | 81% | 1012.9 hPa | 0 mm | - | 172 W/m² | - |
| 1778068473 | 15.56° C | 82% | 1012.9 hPa | 0 mm | - | 162 W/m² | - |
| 1778068171 | 15° C | 83% | 1013.3 hPa | 0 mm | - | 135 W/m² | - |
| 1778067868 | 15° C | 85% | 1013.3 hPa | 0 mm | - | 135 W/m² | - |
| 1778067567 | 14.44° C | 86% | 1013.2 hPa | 0 mm | - | 108 W/m² | - |
| 1778065750 | 14.44° C | 87% | 1013.3 hPa | 0 mm | - | 103 W/m² | - |
| 1778064236 | 13.89° C | 88% | 1013.1 hPa | 0 mm | - | 41 W/m² | - |
| 1778063631 | 13.89° C | 88% | 1013.3 hPa | 0 mm | - | 22 W/m² | - |
| 1778063328 | 13.89° C | 88% | 1013.2 hPa | 0 mm | - | 25 W/m² | - |
| 1778063026 | 13.89° C | 88% | 1013.1 hPa | 0 mm | - | 28 W/m² | - |
| 1778062723 | 13.89° C | 88% | 1013.2 hPa | 0 mm | - | 26 W/m² | - |
| 1778062117 | 13.89° C | 88% | 1013.2 hPa | 0 mm | - | 23 W/m² | - |
| 1778061815 | 13.33° C | 88% | 1013.2 hPa | 0 mm | - | 21 W/m² | - |
| 1778061513 | 13.89° C | 88% | 1013.1 hPa | 0 mm | - | 15 W/m² | - |
| 1778061210 | 13.89° C | 88% | 1013 hPa | 0 mm | - | 9 W/m² | - |
* Rain latest hour (hover to see other rain measurements)
** Current wind speed in m/s (hover to see current wind gust speed)